Date String (YYYY-MM-DD hh:mm:ss) UTC,Instrument flags,Ambient pressure (hPa),Sample flow (lpm),Bypass flow (lpm),Sample temperature (°C),Ambient temperature (°C),ASC tube jacket temperature (°C),LED temperature (°C),Box temperature (°C),Sample RH (%),Span deviation,Mass concentration (μg/m³),Mass concentration (μg/m³),Mass concentration (μg/m³)
DateTimeUTC,F1_M11,P_M11,Q1_M11,Q2_M11,T1_M11,T2_M11,T3_M11,T4_M11,T5_M11,U1_M11,ZSPAN_M11,X0_M11,X2_M11,X1_M11
2021-10-05 10:00:00,,0831.7,5.00,0.00,30.0,29.1,00.0,39.1,31.7,11.0,0001.7,0012.49,0004.06,0003.33
2021-10-05 10:01:00,,0831.7,5.00,0.00,30.0,29.1,00.0,39.1,31.8,11.1,0001.8,0012.22,0004.07,0003.34
2021-10-05 10:02:00,,0831.7,5.00,0.00,30.0,29.1,00.0,39.1,31.7,11.0,0001.4,0011.53,0004.06,0003.34
2021-10-05 10:03:00,,0831.7,5.00,0.00,30.0,29.1,00.0,39.1,31.8,11.0,0001.0,0011.37,0004.06,0003.34
2021-10-05 10:04:00,,0831.7,5.00,0.00,30.0,29.1,00.0,39.1,31.8,10.9,0001.3,0011.48,0004.08,0003.34
2021-10-05 10:05:00,,0831.7,5.00,0.00,30.0,29.1,00.0,39.1,31.8,11.0,0001.4,0012.12,0004.06,0003.33
2021-10-05 10:06:00,,0831.7,4.99,0.00,30.0,29.1,00.0,39.1,31.7,10.9,0000.3,0011.76,0004.07,0003.33
2021-10-05 10:07:00,,0831.7,5.01,0.00,30.0,29.1,00.0,39.1,31.7,11.0,0000.0,0011.26,0004.07,0003.33
2021-10-05 10:08:00,,0831.7,4.99,0.00,30.0,29.1,00.0,39.1,31.8,11.0,0000.0,0009.94,0004.03,0003.34
2021-10-05 10:09:00,,0831.7,5.00,0.00,30.0,29.1,00.0,39.1,31.7,11.0,0000.0,0009.75,0004.01,0003.34
2021-10-05 10:10:00,,0831.7,5.01,0.00,30.0,29.1,00.0,39.1,31.7,11.0,0000.0,0010.09,0004.01,0003.33
2021-10-05 10:11:00,,0831.7,5.00,0.00,30.0,29.1,00.0,39.1,31.7,10.9,0000.0,0010.31,0004.01,0003.34
2021-10-05 10:12:00,,0831.7,4.99,0.00,30.0,29.1,00.0,39.1,31.7,10.9,0000.0,0010.23,0004.00,0003.33
2021-10-05 10:13:00,,0831.7,5.01,0.00,30.0,29.1,00.0,39.1,31.8,10.9,0000.4,0010.11,0004.02,0003.33
2021-10-05 10:14:00,,0831.7,5.01,0.00,30.0,29.1,00.0,39.2,31.8,11.0,0000.7,0010.09,0004.00,0003.33
2021-10-05 10:15:00,,0831.7,5.00,0.00,30.0,29.1,00.0,39.2,31.8,10.9,0002.3,0010.20,0003.98,0003.33
2021-10-05 10:16:00,,0831.7,5.00,0.00,30.0,29.1,00.0,39.2,31.7,10.9,0002.6,0010.62,0004.02,0003.35
2021-10-05 10:17:00,,0831.7,5.00,0.00,30.1,29.1,00.0,39.2,31.7,10.9,0002.8,0010.30,0004.04,0003.36
2021-10-05 10:18:00,,0831.7,5.00,0.00,30.1,29.1,00.0,39.2,31.7,10.9,0002.8,0010.20,0004.02,0003.36
2021-10-05 10:19:00,,0831.7,5.00,0.00,30.0,29.1,00.0,39.2,31.7,10.9,0002.7,0010.42,0004.02,0003.36
2021-10-05 10:20:00,,0831.7,5.00,0.00,30.0,29.1,00.0,39.2,31.7,10.9,0001.6,0010.82,0004.04,0003.37
2021-10-05 10:21:00,,0831.7,5.01,0.00,30.0,29.1,00.0,39.2,31.8,10.9,0001.0,0010.90,0004.07,0003.37
2021-10-05 10:22:00,,0831.7,5.00,0.00,30.0,29.1,00.0,39.2,31.8,10.9,0001.0,0010.63,0004.09,0003.37
2021-10-05 10:23:00,,0831.7,5.00,0.00,30.0,29.1,00.0,39.2,31.8,10.9,0001.0,0010.24,0004.10,0003.37
2021-10-05 10:24:00,,0831.7,4.99,0.00,30.0,29.1,00.0,39.2,31.8,11.0,0000.8,0010.52,0004.13,0003.37
2021-10-05 10:25:00,,0831.7,5.01,0.00,30.0,29.1,00.0,39.2,31.7,11.0,0000.6,0011.62,0004.18,0003.38
2021-10-05 10:26:00,,0831.7,5.00,0.00,30.0,29.1,00.0,39.2,31.8,11.1,0000.0,0011.54,0004.21,0003.39
2021-10-05 10:27:00,,0831.7,5.01,0.00,30.0,29.1,00.0,39.2,31.8,11.0,0000.0,0011.00,0004.20,0003.40
2021-10-05 10:28:00,,0831.7,4.99,0.00,30.0,29.1,00.0,39.2,31.7,11.0,0000.0,0010.99,0004.20,0003.40
2021-10-05 10:29:00,,0831.7,5.00,0.00,30.0,29.1,00.0,39.2,31.7,11.0,0000.0,0011.15,0004.21,0003.41
2021-10-05 10:30:00,,0831.7,5.00,0.00,30.0,29.0,00.0,39.2,31.7,10.9,0000.0,0010.91,0004.25,0003.42
2021-10-05 10:31:00,,0831.7,4.99,0.00,30.0,29.0,00.0,39.2,31.7,10.9,0000.0,0010.32,0004.23,0003.42
2021-10-05 10:32:00,,0831.7,5.00,0.00,30.0,29.0,00.0,39.2,31.7,10.9,0000.0,0009.82,0004.18,0003.40
2021-10-05 10:33:00,,0831.7,5.00,0.00,30.0,29.0,00.0,39.2,31.7,10.9,0000.0,0009.70,0004.12,0003.39
2021-10-05 10:34:00,,0831.7,4.99,0.00,30.0,29.0,00.0,39.1,31.7,10.8,0000.0,0009.73,0004.09,0003.38
2021-10-05 10:35:00,,0831.7,5.00,0.00,30.0,29.0,00.0,39.2,31.7,10.8,0000.2,0009.49,0004.02,0003.37
2021-10-05 10:36:00,,0831.7,5.01,0.00,30.0,29.0,00.0,39.2,31.7,10.8,0000.7,0008.38,0003.97,0003.37
2021-10-05 10:37:00,,0831.7,5.00,0.00,30.0,29.0,00.0,39.1,31.7,10.9,0000.0,0008.09,0003.90,0003.35
2021-10-05 10:38:00,,0831.7,5.00,0.00,30.0,29.0,00.0,39.1,31.7,11.0,0000.0,0008.09,0003.86,0003.33
2021-10-05 10:39:00,,0831.7,5.01,0.00,30.0,29.0,00.0,39.1,31.7,10.9,0000.5,0008.42,0003.85,0003.33
2021-10-05 10:40:00,,0831.7,5.00,0.00,30.0,29.0,00.0,39.1,31.7,10.8,0000.1,0008.76,0003.86,0003.33
2021-10-05 10:41:00,,0831.7,5.01,0.00,30.0,29.0,00.0,39.1,31.7,10.8,0000.1,0009.08,0003.80,0003.30
2021-10-05 10:42:00,,0831.6,4.99,0.00,30.0,29.0,00.0,39.1,31.7,10.7,0000.0,0009.55,0003.80,0003.30
2021-10-05 10:43:00,,0831.6,4.99,0.00,30.0,29.0,00.0,39.1,31.6,10.7,0000.0,0009.73,0003.81,0003.31
2021-10-05 10:44:00,,0831.7,5.00,0.00,30.0,29.0,00.0,39.1,31.7,10.7,0000.0,0010.21,0003.85,0003.32
2021-10-05 10:45:00,,0831.6,5.01,0.00,30.0,28.9,00.0,39.1,31.7,10.7,0000.0,0010.23,0003.84,0003.31
2021-10-05 10:46:00,,0831.6,5.00,0.00,30.0,28.9,00.0,39.1,31.7,10.7,0000.0,0010.12,0003.82,0003.30
2021-10-05 10:47:00,,0831.6,5.01,0.00,30.0,29.0,00.0,39.1,31.7,10.7,0000.0,0010.14,0003.84,0003.30
2021-10-05 10:48:00,,0831.6,5.01,0.00,30.0,29.0,00.0,39.1,31.7,10.7,0000.0,0010.17,0003.84,0003.29
2021-10-05 10:49:00,,0831.6,5.00,0.00,30.0,28.9,00.0,39.1,31.7,10.7,0000.0,0010.28,0003.85,0003.29
2021-10-05 10:50:00,,0831.6,4.99,0.00,30.0,28.9,00.0,39.1,31.7,10.7,0000.0,0010.12,0003.83,0003.28
2021-10-05 10:51:00,,0831.7,5.00,0.00,30.0,28.9,00.0,39.1,31.7,10.7,0000.0,0009.47,0003.79,0003.26
2021-10-05 10:52:00,,0831.7,5.01,0.00,30.0,29.0,00.0,39.1,31.7,10.7,0000.0,0009.10,0003.75,0003.26
2021-10-05 10:53:00,,0831.7,4.99,0.00,30.0,28.9,00.0,39.1,31.7,10.7,0000.0,0008.52,0003.74,0003.26
2021-10-05 10:54:00,,0831.7,5.00,0.00,30.0,28.9,00.0,39.1,31.7,10.7,0000.0,0008.86,0003.74,0003.26
2021-10-05 10:55:00,,0831.6,5.01,0.00,30.0,29.0,00.0,39.1,31.7,10.8,0000.0,0008.37,0003.72,0003.25
2021-10-05 10:56:00,,0831.7,5.01,0.00,30.0,29.0,00.0,39.1,31.7,10.9,0000.0,0008.20,0003.74,0003.26
2021-10-05 10:57:00,,0831.6,5.00,0.00,30.0,29.0,00.0,39.1,31.7,10.9,0000.0,0008.30,0003.77,0003.26
2021-10-05 10:58:00,,0831.7,5.01,0.00,30.0,29.0,00.0,39.1,31.7,11.2,0000.0,0009.09,0003.79,0003.26
2021-10-05 10:59:00,,0831.7,4.99,0.00,30.0,29.0,00.0,39.1,31.6,11.1,0000.0,0009.17,0003.79,0003.27
